Theta_e
297 293 293 296 303 309 314 326 327 328 332 334 333 337 338 344 352 356 356 355 355 361 361 361 359 360 360 360 359 359 359 359
293 291 297 301 302 307 315 320 324 328 327 335 342 336 340 349 355 355 355 354 359 360 360 361 359 360 360 359 358 357 359 359
291 292 296 300 302 303 312 316 324 332 329 333 336 343 346 349 353 351 353 355 357 360 360 360 359 360 360 359 359 358 358 359
288 292 298 300 301 302 313 322 330 332 331 331 341 342 344 348 350 353 353 355 355 359 359 359 360 360 360 359 358 358 357 359
289 293 296 300 302 302 314 318 320 334 328 329 336 341 343 348 352 353 354 353 353 354 356 359 360 360 360 359 358 357 357 358
288 292 294 300 301 301 312 318 334 328 322 324 330 340 347 348 350 352 352 353 352 352 352 351 353 360 359 359 358 357 356 356
289 292 296 300 299 304 316 326 325 326 323 327 335 342 343 343 343 346 350 350 353 351 350 350 351 354 359 358 357 356 355 356
296 297 297 299 297 300 303 312 321 331 335 335 336 340 338 338 338 339 342 347 350 351 351 350 353 349 350 350 350 349 349 347
299 300 298 299 301 301 301 304 321 328 332 332 335 337 337 338 338 337 340 344 349 349 350 349 348 348 348 346 346 346 346 345
300 301 298 298 301 301 301 306 321 333 336 334 335 335 336 335 334 335 339 342 345 347 349 348 346 348 346 345 344 343 343 342
301 301 298 300 300 300 301 327 330 335 336 335 334 335 336 337 337 337 337 339 340 343 345 346 344 346 343 344 345 344 341 340
302 301 298 298 300 299 303 328 331 333 332 334 333 335 335 335 335 336 337 336 338 339 342 342 343 343 342 342 341 338 338 339
299 300 299 301 300 300 304 327 327 330 331 326 334 336 334 335 334 336 335 335 334 335 337 335 338 338 338 339 339 338 337 337
298 302 303 302 295 303 307 320 322 326 327 326 331 335 335 335 335 335 330 331 335 335 334 333 336 336 335 335 337 337 336 336
297 300 301 299 296 303 304 303 308 317 322 323 325 334 336 335 336 332 330 330 333 334 333 333 335 335 333 332 334 336 336 337
293 299 299 296 297 301 303 302 302 300 311 316 325 327 335 336 336 333 329 329 333 336 333 334 336 337 336 336 335 335 335 337
298 302 298 297 296 300 303 309 308 304 305 312 319 330 330 333 335 333 330 331 332 334 333 335 337 338 338 338 338 340 342 341
297 301 298 297 296 299 306 307 308 308 313 318 321 323 329 328 327 329 329 328 334 336 336 337 337 339 340 340 340 339 339 341
295 299 298 296 294 296 303 308 310 312 311 317 320 321 323 326 328 329 330 330 332 334 340 341 343 343 343 343 342 341 341 342
297 294 289 295 287 291 301 304 307 308 310 312 319 325 328 328 327 327 329 332 332 333 333 334 335 336 336 334 334 339 341 339
Wind_Speed
5 4 3 4 3 7 5 5 6 4 3 3 6 3 10 8 15 13 13 12 11 16 16 17 17 16 14 13 12 13 13 14
5 3 5 5 6 10 5 6 3 6 4 2 4 12 7 15 15 13 14 8 13 15 14 15 16 16 15 15 13 13 14 13
2 4 5 5 5 8 5 2 3 4 5 3 3 11 19 17 14 14 12 7 10 14 14 15 16 17 16 15 14 13 14 14
2 4 7 7 5 4 2 4 3 3 4 2 5 14 14 14 14 12 13 8 9 14 14 14 14 14 14 13 12 12 12 12
1 6 6 4 10 8 2 3 1 4 4 2 1 8 14 14 11 11 11 9 7 7 11 14 13 12 12 12 11 11 10 10
2 3 7 5 7 7 2 2 1 3 3 5 7 11 12 11 9 10 11 9 8 5 6 5 6 11 10 10 9 8 9 9
3 2 8 7 9 9 4 6 2 3 5 3 18 13 13 12 7 7 6 6 9 8 5 5 6 8 10 13 11 9 8 8
7 4 6 8 3 2 4 1 2 2 5 16 19 16 14 13 11 7 8 10 9 7 8 7 6 5 5 6 5 5 5 4
7 9 3 8 11 1 8 2 6 8 10 17 19 14 14 11 15 16 13 10 11 11 12 10 7 5 3 3 3 3 5 5
9 5 3 5 6 7 3 6 6 11 15 15 17 16 17 14 13 13 12 15 13 10 9 9 4 6 5 4 3 4 4 6
9 11 7 4 10 7 5 4 2 6 8 16 15 16 12 12 10 7 13 13 11 15 12 10 7 6 6 7 7 7 6 6
7 8 4 4 4 4 3 4 4 7 13 11 14 16 11 12 12 14 14 13 15 13 12 8 9 9 9 7 7 4 4 6
3 2 3 6 8 6 3 7 9 12 13 8 10 14 20 19 18 18 14 10 9 12 11 9 10 7 7 7 6 6 7 7
6 8 5 8 9 12 3 7 13 15 12 8 11 16 12 12 15 16 11 9 8 11 14 14 12 8 7 6 5 6 6 5
12 2 2 4 6 9 6 8 10 10 12 9 13 13 15 18 20 15 11 9 9 9 13 15 13 8 7 6 6 6 4 4
6 8 8 4 6 8 7 8 9 10 13 10 12 20 19 18 14 12 4 5 6 8 11 13 10 5 4 4 5 4 5 5
12 17 4 7 4 9 9 20 19 15 6 8 10 6 14 16 14 10 5 5 6 6 10 9 6 5 3 8 3 4 5 7
9 12 6 8 2 8 13 9 9 15 12 9 10 4 6 12 11 5 5 4 6 7 5 5 5 2 3 3 2 1 1 2
9 10 4 3 3 4 6 13 20 17 7 12 12 12 13 13 14 14 12 8 7 5 2 3 3 1 1 3 3 3 3 4
7 1 5 3 5 3 6 14 20 20 17 15 14 16 15 15 16 13 12 12 12 12 10 7 7 6 5 3 4 4 3 3
Wind_Direction
87 97 167 213 250 286 334 255 127 124 39 172 152 98 156 137 139 136 149 152 160 160 156 152 148 142 137 134 133 135 136 136
84 226 252 207 243 236 128 263 217 138 117 48 282 149 142 139 134 136 151 142 158 160 156 154 151 146 142 146 146 148 149 149
44 272 275 266 275 285 184 199 174 153 155 109 18 112 129 135 129 138 150 135 150 159 159 160 158 155 153 156 158 160 161 162
305 316 272 287 320 347 199 129 124 115 94 60 118 125 137 135 135 142 151 143 154 160 165 163 167 163 159 162 163 167 170 167
275 294 299 275 332 23 211 139 327 122 114 51 151 133 141 131 130 137 147 144 142 151 170 171 170 166 165 166 169 173 174 171
324 280 282 299 4 334 150 32 40 82 183 169 180 143 114 104 104 132 144 145 140 145 153 157 163 172 170 170 172 181 181 179
224 272 269 306 28 334 290 120 60 289 196 188 130 115 109 108 91 118 141 153 165 163 159 152 157 181 178 181 182 185 189 194
212 227 270 298 337 19 339 104 302 356 38 125 131 135 132 149 155 154 167 188 190 174 175 177 182 188 176 182 177 180 184 189
248 251 247 277 311 197 155 246 213 187 138 136 144 147 156 161 170 170 163 177 185 191 184 182 189 174 179 178 176 187 182 184
280 248 205 245 282 295 190 216 217 184 151 144 153 162 170 168 170 178 174 183 182 179 199 193 171 179 179 171 181 201 197 188
249 282 241 166 240 240 268 246 167 146 161 155 159 172 181 172 172 164 208 177 190 177 184 189 188 179 178 199 200 199 190 195
283 279 246 181 252 209 281 145 209 186 200 173 166 171 162 182 180 187 211 186 184 178 182 192 202 201 196 195 208 183 190 201
280 304 285 210 341 302 237 167 199 207 215 145 156 167 184 191 187 193 217 177 174 160 176 187 208 213 205 200 194 201 202 195
289 334 347 67 283 292 108 179 224 211 219 174 174 191 199 198 202 210 204 153 148 175 192 185 198 196 208 194 199 212 207 189
322 314 331 92 276 290 347 224 243 229 239 184 173 197 202 206 210 219 207 162 179 181 198 195 202 192 200 194 203 208 203 197
276 294 11 298 255 290 304 9 319 260 224 200 186 197 198 207 227 244 259 188 182 190 208 204 204 192 187 199 214 208 203 203
277 285 196 250 286 292 15 24 7 335 267 224 188 221 206 208 211 223 232 254 221 196 202 183 177 184 176 217 190 208 205 210
290 266 152 269 314 65 44 23 358 0 329 360 6 327 204 204 204 216 228 237 242 221 207 192 200 167 168 146 222 169 156 174
229 297 275 281 358 64 42 15 11 9 10 39 41 32 11 10 0 358 357 360 27 359 133 151 127 69 124 102 78 37 17 57
258 357 260 81 277 18 348 23 25 14 26 42 35 57 46 38 34 15 6 12 22 13 28 27 40 60 24 52 64 9 54 45